GFSGBSN_250_spd_000.txt.gz
Wind_Speed
33 36 35 32 33 29 33 40 38 38 38 36 35 32 34 34 37 35 36 37 38 40 44 49 47 47 54 60 72 75 67 69 68 56 49 23 17 13 10 7 9 8 8 8 9 11 12
34 35 38 40 31 32 31 28 31 31 32 31 31 34 34 33 29 28 28 23 18 16 19 20 24 27 30 38 35 34 34 25 15 14 16 13 13 15 14 14 18 17 20 21 18 21 20
33 35 37 35 40 38 32 31 34 33 25 28 31 29 28 21 16 15 13 11 8 9 12 15 19 22 23 23 18 17 12 13 12 14 13 12 11 12 14 17 18 20 20 21 17 20 24
37 27 32 33 37 33 26 29 24 27 27 23 22 19 18 18 16 12 9 7 6 9 12 14 17 19 16 15 13 14 12 11 9 10 8 6 5 7 10 10 12 14 15 15 17 29 32
42 37 33 32 33 34 28 26 28 24 17 20 21 19 16 14 12 11 11 8 7 9 11 12 15 14 13 11 7 11 7 4 4 5 2 3 4 7 10 14 15 12 13 19 25 28 27
41 37 33 38 30 27 30 26 27 23 24 22 19 16 13 11 10 10 6 5 8 10 10 10 12 10 10 8 7 6 1 2 5 3 3 11 13 15 13 11 13 16 17 18 19 21 22
40 40 34 33 29 28 28 26 24 26 22 21 18 14 10 7 6 4 5 7 9 9 8 10 9 8 7 10 9 4 7 4 4 3 8 9 11 13 12 11 12 13 15 17 17 17 16
38 41 35 32 32 30 30 30 30 26 24 24 18 14 11 7 3 4 6 7 9 10 12 11 9 11 11 8 6 4 7 4 5 5 7 6 8 7 7 10 13 12 12 13 13 14 15
38 42 35 33 33 33 33 31 25 26 26 21 15 13 9 6 6 7 9 9 10 13 15 14 10 12 16 14 9 9 8 8 7 7 3 2 3 5 6 6 7 7 10 9 12 13 15
38 38 36 36 36 34 32 29 25 25 23 19 16 11 9 8 8 9 10 12 13 15 16 16 13 13 17 21 14 13 10 11 9 8 7 6 6 6 6 10 10 6 11 11 9 9 12
35 34 33 35 34 33 31 27 25 21 17 15 12 11 10 9 10 10 12 12 12 17 19 18 17 17 18 25 23 17 12 12 13 10 10 11 10 12 11 12 14 14 14 12 9 13 19
36 33 31 32 34 31 30 27 24 19 15 13 12 12 13 12 10 10 10 10 14 18 21 18 18 19 20 22 29 23 18 15 14 13 12 12 13 15 18 20 18 20 19 18 19 22 21
34 32 29 28 30 31 29 25 20 16 14 13 14 16 15 12 12 11 10 12 15 20 19 17 16 19 20 23 31 26 18 17 14 14 14 14 17 18 21 24 25 23 21 22 23 24 27
36 34 29 28 29 28 25 22 18 16 14 14 13 14 14 14 14 13 14 16 17 18 17 18 16 18 21 23 29 25 18 13 12 13 14 18 11 17 19 23 24 24 20 21 20 21 25
39 36 32 32 30 29 26 23 19 17 16 15 13 12 14 15 16 17 17 17 17 18 19 18 19 17 18 22 31 26 21 18 16 16 12 17 15 17 19 22 23 23 27 24 23 28 29
40 39 36 35 34 31 28 26 23 20 17 17 15 15 15 16 17 17 18 20 19 20 21 18 17 21 21 27 30 30 25 23 20 18 16 18 20 19 17 21 22 27 29 32 31 33 30
42 41 39 38 35 33 30 27 25 24 21 21 18 16 16 16 16 19 19 18 19 20 22 18 16 19 19 21 27 32 30 25 21 21 21 21 22 23 23 23 25 27 32 33 37 39 34
45 46 45 43 39 36 33 29 27 26 25 23 22 19 19 16 17 16 16 18 18 18 20 20 19 19 17 21 26 30 31 29 27 29 28 27 22 28 27 30 31 33 37 39 37 34 40
48 48 48 46 42 40 33 30 27 27 28 26 25 22 21 20 20 19 20 19 20 20 19 18 18 20 21 23 30 34 37 38 40 36 34 33 32 29 34 32 34 45 53 51 44 40 42
50 50 48 49 47 42 37 34 31 30 29 29 28 27 26 25 22 19 20 21 22 23 22 20 16 16 18 23 26 35 39 40 38 39 40 38 39 36 38 45 46 45 52 58 55 50 48
47 47 47 46 45 45 42 40 37 35 35 33 32 32 32 31 28 25 22 21 21 23 22 20 18 18 18 19 23 31 36 39 42 41 40 39 45 46 50 47 42 42 48 54 58 61 59
48 49 46 46 45 43 42 41 40 40 38 36 34 33 34 36 32 32 29 27 25 25 23 24 20 22 19 20 22 22 23 25 31 32 36 34 36 37 39 45 44 44 52 56 60 63 65
42 47 47 49 46 47 45 44 43 43 42 38 37 36 36 35 35 32 35 34 35 33 31 29 28 26 27 27 26 29 30 33 33 34 37 37 37 37 39 47 50 54 61 64 64 67 70
49 44 44 43 48 49 46 46 45 41 39 39 40 38 40 40 38 36 35 34 35 36 32 33 36 33 35 34 34 35 38 38 41 44 45 44 48 49 48 51 50 57 69 72 68 71 74
52 51 49 46 42 43 42 43 43 46 45 40 42 43 40 44 44 38 37 35 34 34 34 36 37 38 38 38 42 43 46 47 50 51 55 56 56 57 56 58 59 64 75 75 74 73 79
60 56 54 52 51 48 47 42 46 49 44 44 44 43 43 47 47 47 43 42 39 41 43 44 44 46 46 46 48 47 43 47 49 53 57 61 63 63 64 62 62 71 76 79 82 81 85
64 60 56 51 50 48 48 49 47 47 47 48 46 46 44 48 52 51 49 47 52 51 50 50 51 53 53 49 47 45 45 50 50 54 57 60 62 66 70 74 71 80 81 82 85 83 88
67 65 63 60 59 55 54 51 52 51 52 52 48 49 47 45 49 48 50 50 51 51 52 50 51 53 55 56 55 55 54 57 59 63 66 69 72 76 77 80 78 83 86 89 93 92 97
72 69 64 63 58 58 60 59 58 55 54 53 55 54 47 47 45 48 50 55 55 55 57 57 58 60 60 62 62 59 60 61 65 66 73 76 82 81 85 89 89 89 94 95 100 103 103

GFSGBSN_250_spd_003.txt.gz
Wind_Speed
23 23 21 26 26 27 29 29 31 30 32 33 27 26 30 32 32 32 34 40 43 47 53 55 61 65 72 75 79 77 82 73 92 98 100 97 72 42 36 15 15 15 12 4 10 6 10
25 20 28 28 31 31 27 30 29 29 29 28 30 32 31 33 32 33 35 32 32 36 36 38 42 40 42 43 45 46 52 50 47 39 25 19 6 6 10 10 10 9 12 13 16 21 23
28 29 31 32 29 27 26 30 33 34 35 33 31 30 26 27 26 30 27 24 24 23 21 20 16 17 19 21 19 19 17 7 9 4 7 6 9 14 15 12 12 14 16 18 20 26 27
30 30 31 29 32 33 31 33 31 27 24 24 26 25 25 26 27 19 20 20 15 9 9 11 11 13 14 12 9 4 1 4 5 8 13 14 15 12 9 10 11 13 15 13 23 26 27
35 32 25 27 31 30 29 30 30 28 25 25 24 24 22 19 20 20 18 12 5 6 8 9 9 11 10 8 3 2 4 5 9 10 14 13 10 7 8 9 7 12 12 14 19 19 20
28 34 31 30 31 28 27 24 21 21 19 19 17 21 21 18 14 12 11 7 5 7 8 8 9 10 10 6 3 3 5 6 9 9 11 7 10 8 8 7 7 6 8 10 13 13 12
29 33 30 31 31 29 23 21 23 21 14 24 24 21 18 14 15 14 10 6 5 7 7 8 10 10 9 7 4 5 4 9 7 5 4 6 9 8 8 8 6 8 8 6 7 8 9
38 36 30 32 34 27 26 25 24 24 24 26 23 19 14 12 11 8 7 4 4 6 7 9 10 11 9 10 6 8 8 9 8 6 3 5 5 4 4 3 5 3 2 3 7 7 9
39 35 35 32 28 25 25 27 23 25 26 26 21 15 12 9 7 5 5 6 7 8 10 11 10 12 11 14 15 12 11 9 9 10 6 8 6 4 4 5 3 3 3 10 12 7 6
41 37 34 36 29 30 30 26 23 28 28 23 18 13 11 8 8 6 6 8 9 11 11 14 14 13 16 15 19 17 14 13 13 11 10 11 10 8 7 8 9 9 12 15 11 11 14
42 39 37 36 34 31 25 26 26 27 26 20 12 10 10 8 6 7 8 9 10 10 12 16 18 17 17 18 19 23 19 14 13 14 15 14 18 15 12 13 13 13 14 15 14 14 15
43 45 42 37 33 31 31 28 26 24 21 16 13 11 10 9 8 9 8 9 10 12 16 19 19 17 19 20 21 20 26 19 15 16 16 18 17 16 20 21 22 20 22 16 17 22 19
39 40 38 36 36 34 32 29 26 21 19 17 15 15 13 12 10 9 10 10 12 15 18 18 17 17 19 20 22 20 26 27 20 17 16 16 18 20 17 18 16 21 21 22 23 21 26
40 39 38 35 35 34 33 30 27 23 20 17 16 14 11 9 9 10 12 13 14 15 18 19 20 21 20 17 22 20 22 32 19 17 17 17 16 20 19 20 21 22 24 22 23 27 31
41 40 37 36 36 34 32 31 27 22 19 16 13 11 9 10 9 12 14 15 13 16 19 19 23 24 23 22 19 19 23 29 21 16 16 18 16 18 20 18 21 24 25 27 28 31 33
43 40 37 33 30 32 32 28 24 21 16 13 12 13 11 11 11 13 13 14 17 18 18 19 22 22 18 23 19 24 24 24 24 18 18 21 20 20 20 22 25 28 28 32 34 35 36
45 42 39 34 32 31 32 28 25 22 18 18 17 16 14 12 12 14 14 14 15 16 16 18 19 20 20 20 17 17 21 26 24 25 24 24 26 25 28 26 29 29 33 31 35 38 42
46 42 41 38 35 34 33 31 27 24 23 23 21 19 17 15 13 14 14 15 15 16 17 18 18 18 18 19 16 15 18 24 28 28 31 28 31 38 35 33 34 37 43 44 39 37 43
45 41 42 40 38 36 35 34 31 29 27 25 23 22 22 19 16 18 18 18 19 19 18 18 17 17 15 15 16 16 21 27 31 33 35 40 40 42 42 39 40 44 53 56 48 45 46
46 43 44 43 41 40 40 38 35 33 30 27 25 26 25 23 21 23 22 20 18 18 17 16 16 15 15 16 16 17 21 26 32 38 40 41 43 40 43 42 38 40 44 48 50 48 47
53 50 48 46 45 44 43 42 41 38 33 31 30 30 28 27 27 29 27 26 24 21 18 18 17 18 18 16 16 16 17 18 22 28 26 27 31 29 36 33 35 37 43 48 53 59 59
56 55 53 51 49 47 47 47 46 42 38 36 35 34 33 32 32 32 30 32 29 31 27 26 23 24 24 21 22 23 23 23 25 27 27 29 30 32 39 44 44 47 55 56 58 60 62
52 55 55 54 52 52 51 49 50 47 44 43 39 38 37 37 36 34 33 32 29 30 34 34 32 28 28 30 29 30 32 33 34 34 38 39 37 36 39 45 47 51 57 56 56 61 64
44 47 51 52 54 52 53 49 49 47 46 45 42 42 41 41 39 38 35 36 34 35 34 35 33 29 30 32 34 35 35 35 36 41 43 45 47 48 48 51 50 59 62 62 62 67 71
47 44 45 45 51 52 52 51 51 48 48 49 46 45 43 41 40 39 38 38 39 38 37 36 32 35 34 35 35 39 42 43 46 48 51 50 50 50 50 48 50 63 64 66 68 74 80
53 51 46 45 44 47 49 51 48 49 50 46 46 46 46 44 43 37 38 37 41 43 42 41 39 39 40 42 43 43 44 43 45 48 51 54 56 59 61 59 60 70 70 75 78 77 83
66 62 58 55 52 49 48 50 51 51 47 47 47 46 45 47 46 44 41 43 41 41 43 46 44 49 50 47 46 46 45 49 50 54 56 60 63 65 67 68 70 77 78 83 86 86 88
70 65 62 62 59 57 55 53 50 49 47 48 48 48 45 43 44 45 47 47 48 45 43 43 45 49 48 51 50 50 52 56 57 60 64 66 70 71 72 76 81 86 86 92 92 91 102
73 74 69 65 63 58 55 55 53 52 51 50 49 50 48 48 48 50 54 52 51 51 51 50 50 50 53 57 59 60 62 62 66 65 72 74 77 79 82 81 86 88 92 95 100 106 111

GFSGBSN_250_spd_006.txt.gz
Wind_Speed
8 11 14 17 21 19 20 23 22 24 25 26 28 29 30 31 31 32 33 32 33 36 43 43 44 50 50 54 59 61 66 68 72 60 63 60 74 74 79 58 45 34 22 24 19 17 13
11 14 18 25 26 22 24 26 27 26 25 23 22 23 22 22 24 27 28 29 29 31 32 32 33 37 36 44 45 52 55 63 65 66 74 49 49 24 38 28 20 12 8 8 3 1 6
15 20 29 31 28 27 26 26 27 27 28 27 23 24 25 24 23 25 23 22 24 25 25 27 26 28 30 27 32 39 38 34 33 27 16 15 8 13 14 10 6 4 8 10 8 14 16
24 25 35 34 31 34 33 33 32 31 31 28 27 27 26 24 20 16 19 21 21 18 18 16 14 13 14 16 18 20 18 13 11 7 5 2 2 2 2 5 8 9 13 17 19 18 18
30 30 31 32 26 30 29 31 28 30 30 27 24 20 19 17 19 17 17 16 15 13 9 8 9 10 8 10 10 11 10 9 2 2 3 4 3 3 3 8 7 6 10 14 12 11 10
33 33 31 34 28 31 32 29 26 26 24 24 18 16 13 13 16 18 19 18 13 8 6 6 5 6 7 8 9 9 9 5 1 3 4 3 4 4 4 7 8 8 6 9 8 7 3
32 29 34 31 31 29 26 26 22 20 19 16 18 17 20 21 22 21 19 14 10 6 5 6 6 6 8 9 9 12 9 5 5 2 1 4 6 3 1 4 5 8 11 12 10 8 7
28 28 35 31 33 31 28 21 21 18 18 16 20 24 24 21 19 19 15 10 7 5 5 6 8 9 9 8 9 11 11 8 8 7 5 8 7 6 7 9 9 11 11 10 10 10 12
28 29 31 31 34 29 26 22 18 17 15 24 27 25 22 21 19 16 14 10 6 6 7 8 8 10 13 12 11 13 13 13 11 9 8 11 11 10 9 10 9 12 13 13 15 15 13
32 35 29 33 31 29 25 24 21 20 25 30 28 21 19 15 12 9 6 6 7 9 11 11 12 14 17 16 12 14 15 16 16 14 13 12 14 13 11 11 13 13 16 21 21 21 21
39 36 35 32 31 30 24 22 21 20 29 29 22 15 14 12 10 7 8 9 10 10 9 11 14 17 18 18 17 17 18 21 20 16 14 15 13 14 17 16 18 20 22 21 23 25 25
42 41 36 33 33 29 26 27 25 22 29 26 16 13 14 12 11 9 9 8 8 9 11 13 15 16 16 17 19 21 21 22 23 19 18 17 18 17 15 15 19 20 18 20 21 25 29
43 39 34 38 38 32 31 25 23 28 29 23 16 14 14 11 9 8 8 8 9 10 12 13 14 16 17 19 18 20 23 22 24 25 21 20 20 20 17 19 19 19 23 24 23 27 29
49 44 43 40 36 35 30 23 26 26 26 23 18 15 13 12 11 10 10 11 12 12 11 14 16 16 19 19 18 16 22 21 22 26 25 22 22 22 20 18 19 20 23 26 27 26 31
47 44 45 43 38 35 28 30 30 27 24 20 16 14 15 13 10 12 13 11 12 14 15 16 15 16 19 14 16 18 19 19 21 25 26 21 20 21 20 22 23 23 26 26 28 28 29
45 44 48 45 40 34 34 33 32 28 23 20 15 14 14 10 10 11 11 11 12 14 14 15 15 14 18 15 14 17 19 20 22 24 23 23 21 22 26 25 27 31 33 30 29 28 30
49 47 43 41 38 38 37 35 33 29 25 20 17 16 15 13 11 11 13 12 13 12 14 14 13 13 17 16 14 13 10 14 19 26 24 26 27 26 25 27 34 38 38 37 40 44 46
49 47 44 41 39 38 38 37 36 32 27 22 19 18 18 16 15 13 13 14 13 14 16 16 14 13 14 15 15 12 12 12 16 23 28 29 32 32 31 34 41 49 49 43 39 37 39
52 49 46 43 41 39 39 40 37 33 28 27 22 21 19 21 20 18 16 18 16 15 17 14 13 12 13 14 14 14 13 14 16 21 26 32 37 39 38 43 44 51 50 37 34 37 41
55 53 50 47 44 41 40 39 38 35 33 31 27 25 24 25 24 23 21 21 20 18 18 16 16 15 13 15 15 13 13 14 13 15 20 28 33 37 38 36 30 37 41 42 43 46 46
58 55 52 50 47 45 43 41 38 37 36 33 30 28 27 28 29 26 25 24 24 24 25 24 22 19 19 18 18 20 18 18 18 19 21 23 24 26 31 34 36 43 45 50 53 56 56
60 57 54 50 48 47 44 41 39 37 37 35 34 32 29 31 31 30 29 28 29 26 28 28 29 30 29 25 26 26 26 26 27 28 29 31 32 34 39 42 44 47 48 49 51 53 56
59 59 56 52 48 46 47 46 43 43 43 41 40 38 35 35 36 34 35 35 33 31 31 30 29 30 33 33 32 29 29 30 31 32 35 35 34 38 44 47 50 52 52 55 58 64 65
59 58 58 56 53 50 49 47 46 47 47 45 44 44 43 42 41 39 38 39 37 35 34 32 33 31 31 30 29 31 33 34 33 39 41 41 41 42 43 45 46 62 57 59 63 70 73
59 62 59 58 57 56 54 52 51 50 49 49 49 49 48 47 45 44 43 42 41 37 36 32 35 35 34 34 34 37 37 36 40 43 44 44 46 47 51 50 52 67 63 67 68 70 76
57 56 59 60 62 60 59 57 55 55 55 54 54 54 52 50 49 45 44 45 42 39 37 35 33 36 38 37 36 38 42 44 42 47 49 52 54 56 60 61 61 71 73 74 73 75 79
60 58 54 55 54 55 58 57 55 56 57 56 53 54 53 52 51 50 49 48 47 43 45 42 42 42 41 41 40 38 39 44 48 49 52 57 61 64 66 68 71 77 79 82 82 81 82
63 62 59 55 54 53 54 52 51 53 51 50 51 52 51 55 54 52 50 47 44 43 44 44 45 47 47 48 48 48 48 51 54 58 62 66 68 70 72 74 78 80 85 86 87 85 90
69 68 66 62 63 59 60 61 56 56 59 61 59 53 53 53 50 49 50 49 47 48 48 47 50 54 51 53 55 55 56 57 61 64 69 69 72 74 78 77 85 89 90 91 97 99 99

GFSGBSN_250_spd_009.txt.gz
Wind_Speed
14 11 10 10 13 14 14 18 20 23 26 27 30 32 33 31 32 33 30 31 33 31 31 34 32 33 42 49 44 47 56 64 61 56 70 90 73 71 80 74 79 77 67 70 47 36 35
12 9 12 17 17 17 19 24 25 25 27 30 30 32 32 32 31 31 29 28 26 25 26 28 31 31 31 34 37 38 38 46 53 48 55 49 44 46 47 50 43 37 28 28 20 15 13
8 11 19 19 21 23 27 26 27 29 27 27 27 27 27 27 25 22 21 20 19 18 20 22 22 22 26 28 29 29 28 29 29 29 26 26 23 23 18 26 21 25 18 11 6 7 9
12 20 26 28 31 33 33 34 35 32 31 30 29 28 28 26 25 24 22 21 20 17 14 16 17 17 18 18 17 17 20 19 23 23 20 17 11 12 9 10 11 8 3 9 11 13 13
22 29 30 34 35 36 33 33 34 33 33 32 31 29 28 27 25 22 19 15 12 14 15 13 11 10 10 11 13 15 16 16 10 12 9 9 8 7 6 6 9 10 12 16 16 17 11
29 31 34 34 36 29 33 30 36 35 33 30 28 25 24 23 20 16 13 14 13 11 9 8 8 7 9 11 13 15 15 14 12 8 7 9 8 7 10 10 9 11 15 18 14 13 10
38 39 39 38 35 33 31 32 31 30 27 26 25 22 19 16 15 13 13 14 11 9 7 7 6 6 7 11 13 14 16 15 11 7 6 8 9 10 9 12 14 14 14 13 15 14 15
36 40 41 31 34 37 36 33 29 22 22 20 20 19 15 14 12 14 16 16 13 9 6 6 6 6 8 10 10 11 14 16 12 10 11 11 12 12 9 9 8 10 14 15 14 15 19
34 32 34 43 34 32 26 26 22 17 14 17 17 17 16 17 18 18 18 13 9 6 5 5 7 7 9 10 12 13 16 18 19 13 10 13 15 13 13 12 13 15 18 20 22 20 23
32 33 35 37 31 30 28 22 19 17 17 20 21 21 19 17 17 16 14 10 7 6 7 8 9 9 11 14 15 15 17 20 21 19 15 14 16 18 16 17 20 20 21 24 26 28 30
33 36 35 34 36 31 27 24 18 18 20 27 26 22 21 21 19 16 11 7 6 7 9 9 10 12 15 14 15 17 17 20 21 22 20 14 15 16 18 21 22 22 23 27 28 29 29
31 37 35 37 32 29 25 22 19 16 25 29 25 23 20 17 13 10 8 8 9 10 9 10 12 11 11 14 15 16 18 19 23 24 24 20 17 16 16 20 23 24 23 23 22 22 24
35 38 39 38 35 30 29 23 22 20 25 27 21 18 17 15 14 11 10 11 12 9 8 11 12 13 13 14 17 19 18 18 21 25 26 26 21 19 17 20 21 23 22 21 24 27 28
40 40 41 42 37 33 30 26 25 25 25 28 21 18 18 16 14 13 14 12 12 10 11 11 13 15 15 14 15 16 19 18 20 22 23 27 27 22 21 20 20 20 23 25 25 29 33
43 44 41 40 35 36 34 28 25 28 30 31 25 18 17 15 14 13 13 12 10 11 12 12 13 15 14 15 17 14 16 18 19 20 24 25 26 24 23 22 21 21 22 24 27 31 35
46 47 46 41 38 40 37 30 23 28 30 29 24 19 16 16 16 14 13 12 12 11 11 11 13 13 12 15 15 17 17 17 19 20 21 24 26 26 25 24 26 26 26 30 34 37 41
51 51 47 43 41 41 35 31 26 32 31 28 24 20 19 17 15 13 14 14 11 12 13 12 12 14 14 15 15 14 12 13 14 16 21 25 27 28 29 31 32 33 35 38 43 46 46
55 53 50 47 44 43 40 34 33 35 32 29 26 23 22 21 18 16 15 14 14 13 13 14 15 14 14 15 15 16 15 11 10 14 14 25 29 29 31 34 37 38 41 44 40 36 37
53 51 53 52 51 49 43 37 38 39 36 32 29 26 23 23 23 21 19 18 18 17 14 13 14 14 15 15 15 16 16 13 11 12 13 17 22 27 31 36 41 42 39 34 34 39 42
53 52 50 53 58 49 43 41 42 40 39 36 33 29 27 26 24 26 24 23 23 20 19 18 17 19 20 18 18 17 17 18 17 16 17 20 21 21 22 24 30 36 37 40 43 46 46
55 54 55 57 54 48 44 44 44 43 41 40 36 34 30 29 28 27 28 28 27 25 23 22 23 25 26 26 26 24 24 25 26 25 24 26 28 29 32 33 36 42 44 49 49 49 47
59 59 60 56 53 50 46 45 45 46 45 44 40 38 36 33 31 30 29 30 30 29 29 27 25 27 28 29 31 32 33 33 33 32 30 31 30 32 38 37 40 47 46 47 50 53 55
60 60 61 59 57 52 48 47 46 46 48 47 45 42 40 36 34 32 32 33 34 32 33 34 33 32 32 31 34 34 32 30 33 35 34 34 32 36 42 44 46 50 48 51 55 59 60
60 62 63 61 60 56 53 51 49 47 47 46 45 44 42 38 37 37 37 35 35 36 38 36 37 36 36 35 34 34 34 34 36 36 39 41 40 44 45 45 48 61 54 57 60 64 69
60 64 66 65 62 58 55 52 51 49 49 48 48 46 44 44 44 43 43 42 41 41 43 43 42 42 40 40 39 39 39 38 38 41 42 43 46 47 49 49 51 66 63 66 66 67 74
60 63 66 67 64 62 59 56 53 52 52 51 51 50 49 48 47 46 47 46 46 46 45 46 44 43 42 41 40 39 38 41 42 45 49 48 50 53 55 57 60 70 70 70 74 73 78
59 62 64 66 67 65 62 59 57 55 54 53 53 53 53 52 51 49 49 50 50 49 48 47 46 46 47 45 45 45 45 44 44 49 51 55 56 59 62 66 67 72 74 78 80 80 83
60 60 63 64 65 64 64 63 61 59 58 57 57 57 56 55 56 56 57 55 54 52 50 49 49 50 47 47 46 46 47 49 49 51 56 59 61 64 67 73 77 80 79 82 85 87 92
62 59 57 61 65 65 66 65 64 63 63 63 62 60 60 58 56 56 56 56 54 51 52 51 50 50 50 50 50 49 50 53 54 54 62 63 70 71 78 77 83 83 84 88 92 93 98